Theta_e
354 348 352 346 351 351 350 354 352 353 356 350 348 347 346 348 346 350 352 360 359 357 355 355 351 351 351 353 350 350 349 350 351 352 353 354 354 355 354 352 352 351 350
364 360 359 348 350 350 354 345 355 348 357 354 351 348 348 349 353 345 348 355 360 359 356 355 353 351 351 351 351 352 353 354 354 354 355 355 356 356 354 353 353 352 351
353 347 357 355 350 355 357 351 354 354 357 354 354 351 350 350 350 352 347 347 354 360 359 359 355 354 354 354 354 354 354 355 355 355 357 357 357 357 355 354 354 353 352
366 365 357 353 364 359 359 354 357 353 346 354 351 350 353 351 353 352 353 353 350 349 358 360 359 358 357 357 357 357 358 359 359 360 360 359 359 359 358 357 356 355 355
364 356 354 356 367 360 347 356 345 355 354 350 346 352 352 350 353 349 351 354 349 353 353 358 360 360 358 359 359 359 360 360 360 360 360 361 362 361 360 359 359 358 357
361 354 358 362 353 358 354 354 359 348 354 346 344 345 347 349 352 351 351 351 352 353 355 356 355 355 359 361 362 362 361 361 361 361 361 361 362 362 361 360 359 359 358
360 354 359 364 355 351 359 364 360 358 355 353 353 352 348 348 348 351 350 348 352 353 353 355 358 356 353 361 362 361 361 362 363 363 362 361 362 361 360 359 358 357 357
367 358 352 356 359 354 365 363 360 351 356 345 349 350 337 343 346 343 349 347 349 351 352 354 355 356 356 356 357 361 362 363 364 364 364 362 362 361 360 359 357 357 357
367 366 361 351 359 362 358 364 361 354 347 355 352 350 338 336 346 346 346 347 347 351 350 350 352 356 357 358 363 362 363 360 362 363 363 361 360 360 359 359 358 357 357
366 366 366 356 361 355 352 363 361 349 350 352 354 351 353 346 343 337 345 343 349 345 347 353 349 355 356 358 365 364 364 360 358 357 359 360 360 360 361 360 360 358 358
367 365 367 364 359 360 353 358 363 365 361 353 342 353 352 354 346 346 339 340 346 349 348 352 351 352 356 357 356 356 357 352 353 354 355 357 358 359 360 361 361 360 361
362 367 365 368 367 354 358 358 366 366 365 363 360 353 349 344 342 345 342 342 342 345 352 353 353 355 357 361 358 359 357 354 352 352 352 353 355 357 358 359 359 360 361
356 362 369 371 364 364 364 367 370 364 366 362 364 358 359 341 348 352 348 346 338 347 350 353 354 354 353 356 359 358 364 357 351 349 348 350 351 352 353 354 355 356 358
356 364 364 368 370 367 367 367 365 363 364 363 362 365 360 358 354 354 352 348 343 345 350 351 353 355 358 358 358 358 359 359 351 348 347 348 347 348 349 350 350 350 351
353 356 360 366 369 365 365 368 364 364 364 364 364 364 363 357 351 352 351 350 347 338 339 350 352 359 359 360 361 359 363 357 350 348 347 346 345 344 346 346 346 346 345
350 352 352 352 364 367 364 365 363 362 363 364 359 363 362 357 358 354 349 354 353 348 341 348 348 359 362 358 361 359 364 354 353 351 349 345 345 344 344 344 344 342 338
356 351 338 340 358 365 367 367 362 357 360 360 364 361 362 363 359 357 357 354 354 352 346 348 356 356 358 359 358 362 364 364 361 353 348 346 343 343 343 342 339 335 331
369 363 354 357 362 366 363 362 363 360 359 360 361 361 359 358 363 363 358 356 356 357 351 347 351 350 352 354 363 365 362 360 359 357 348 345 343 342 339 336 332 328 326
366 363 364 366 366 364 366 363 361 364 361 361 362 362 361 361 360 358 362 358 355 355 355 352 348 357 353 354 355 361 364 364 366 356 348 346 345 338 335 329 326 323 322
365 364 365 365 364 363 365 365 365 362 362 360 363 363 363 362 362 362 360 359 358 358 356 355 351 349 351 354 359 356 353 352 352 356 353 346 342 339 333 326 325 324 321
365 365 365 364 366 363 361 361 362 364 362 361 363 364 363 361 355 358 360 360 359 357 354 351 349 351 350 352 349 351 348 353 352 354 352 352 349 346 333 327 330 328 323
364 365 363 363 361 358 342 338 355 360 363 362 359 362 364 357 352 342 341 341 350 358 356 356 352 347 349 355 355 353 351 345 342 359 352 350 351 350 351 341 335 328 324
364 362 360 364 361 363 341 333 336 357 362 361 363 360 358 356 351 360 343 339 339 337 341 350 350 353 354 356 359 357 355 355 352 352 354 348 355 352 357 338 329 325 323
358 361 360 361 361 362 339 335 335 350 355 357 362 363 362 360 359 361 362 361 357 357 354 348 348 349 352 356 357 356 355 357 359 360 360 350 356 352 348 332 326 325 323
345 355 358 360 361 360 334 329 335 354 353 353 355 359 359 361 349 339 355 358 360 361 348 340 341 341 339 338 344 355 351 348 343 344 350 345 343 348 352 337 328 325 322
342 348 350 358 350 357 339 326 331 355 354 354 355 355 339 346 335 331 351 356 352 354 356 358 356 344 339 345 334 348 354 348 345 343 348 347 346 346 343 353 339 326 325
Wind_Speed
10 9 8 4 5 1 5 2 4 3 4 3 5 6 7 7 11 7 5 12 10 8 6 5 4 3 1 1 1 1 2 3 5 5 6 6 7 7 6 6 5 3 3
4 4 4 5 0 6 5 4 2 2 1 4 4 6 6 5 4 9 7 7 11 10 9 7 4 3 3 3 3 3 4 4 5 6 7 7 8 8 7 7 6 6 5
3 4 2 5 3 4 6 4 1 1 2 3 2 4 6 6 4 3 8 6 7 10 9 9 6 6 5 4 4 4 5 6 7 7 8 8 9 8 8 8 8 8 7
4 3 4 3 1 4 2 2 4 2 4 2 2 3 4 5 3 2 6 5 7 7 7 10 10 9 8 7 6 6 6 7 7 8 9 9 9 9 9 9 9 9 9
5 4 3 4 2 3 2 2 0 1 2 3 4 4 4 5 6 5 5 3 3 9 6 11 12 11 10 9 8 8 8 8 9 9 10 11 11 11 11 11 11 11 10
10 6 6 4 5 3 2 1 5 1 2 2 3 2 3 2 5 5 6 5 5 6 8 8 7 7 12 11 10 9 9 10 10 11 12 12 12 12 12 13 13 13 12
13 9 6 3 5 2 2 2 2 1 2 2 3 2 1 2 3 4 6 5 6 7 7 5 2 5 5 12 11 11 11 10 10 12 12 12 12 13 13 13 13 14 14
3 9 4 6 5 2 2 3 4 4 3 3 1 1 2 3 3 2 3 2 1 4 5 5 6 3 5 5 9 14 12 10 10 11 12 12 13 13 13 13 13 13 13
4 3 7 3 1 1 3 1 4 2 1 2 2 1 3 2 2 2 2 3 3 2 4 4 5 6 5 3 7 8 12 10 9 11 12 12 13 12 12 12 13 13 13
4 5 6 5 3 1 4 3 5 1 2 5 2 2 1 3 1 2 2 3 4 3 3 3 5 6 7 5 5 6 9 8 8 9 11 11 12 12 12 12 12 12 12
4 5 6 6 7 4 4 2 2 2 2 4 3 3 1 2 1 0 2 3 3 5 4 3 2 5 6 3 5 6 7 7 6 8 9 9 10 11 12 13 12 12 12
5 5 4 5 6 5 4 5 3 1 2 3 3 4 2 2 3 2 2 2 4 2 3 4 2 1 3 3 5 6 9 8 6 7 10 8 9 11 11 12 12 14 14
5 6 5 3 3 6 5 3 0 3 3 3 4 3 1 4 2 2 3 4 2 2 1 3 4 1 2 1 4 6 8 9 7 8 10 8 8 11 9 10 12 12 11
2 7 5 4 3 5 4 4 4 3 4 2 5 4 4 5 4 1 1 2 4 3 1 3 2 3 2 2 3 7 5 7 9 9 10 9 8 10 7 8 9 9 9
6 4 3 7 5 5 5 4 3 4 3 4 4 4 4 5 4 4 1 1 0 2 3 4 2 1 2 2 2 4 6 2 11 14 12 11 9 9 6 5 6 5 8
1 6 4 6 5 5 6 6 4 5 5 4 4 5 5 3 4 6 1 3 2 1 3 1 4 2 3 3 5 3 5 9 14 12 9 12 10 10 6 2 4 5 7
11 7 4 7 10 5 5 5 5 3 6 5 4 2 5 6 4 4 4 5 3 2 3 4 2 4 4 4 7 5 5 7 7 8 11 11 11 12 7 3 2 6 6
4 9 11 11 9 5 7 6 6 5 8 6 6 5 5 5 5 4 4 5 4 3 1 5 4 4 6 8 7 5 6 8 5 9 13 12 12 13 6 7 6 5 2
7 7 6 6 7 7 6 8 7 6 6 6 7 7 6 6 5 4 5 5 5 3 3 3 5 4 5 5 4 6 5 5 7 11 9 16 13 6 9 9 8 6 2
8 8 7 8 9 9 8 7 8 7 7 7 7 7 7 8 7 6 5 6 6 5 4 5 5 5 5 8 3 2 4 3 5 5 7 4 2 10 11 9 9 8 5
8 9 8 8 7 11 10 10 9 8 9 9 7 5 8 9 11 9 5 6 6 5 5 5 6 4 4 4 3 3 3 3 4 4 5 5 3 4 5 9 8 8 7
5 5 9 9 10 9 13 11 10 9 7 9 8 7 8 9 9 10 10 11 7 5 5 5 5 5 5 4 5 4 4 4 5 4 5 9 4 9 6 8 12 11 10
6 7 8 8 10 10 12 9 9 8 9 9 8 9 9 10 10 10 14 13 13 12 12 7 8 8 8 7 5 7 6 5 7 7 5 9 7 6 3 4 14 13 11
8 6 8 10 9 10 11 12 10 6 8 9 8 10 11 10 10 6 8 8 11 12 10 9 11 14 13 11 8 9 8 8 8 8 8 7 8 8 4 4 9 12 10
8 10 8 9 9 11 12 11 8 8 9 10 10 10 10 10 12 14 10 10 9 10 12 18 16 17 18 16 10 4 6 7 10 9 4 4 5 5 1 4 6 11 9
7 7 9 8 11 11 12 12 9 7 10 9 10 11 15 14 13 13 9 12 13 13 10 11 6 10 14 12 14 11 10 10 9 10 9 6 3 4 4 3 5 7 5
Wind_Direction
136 169 162 196 55 70 36 253 290 48 63 49 100 52 36 69 123 133 144 158 158 151 150 150 142 153 170 224 270 335 341 346 344 338 338 336 331 332 338 339 338 333 337
69 57 81 117 177 150 175 206 207 146 85 87 39 132 104 57 54 142 144 166 167 169 169 171 176 198 241 267 287 302 314 316 313 311 311 311 313 314 314 315 311 306 297
352 109 14 127 178 228 136 227 201 320 77 92 87 74 131 147 147 137 150 154 176 187 190 178 188 209 231 254 273 290 299 301 300 302 302 300 299 300 297 294 292 288 283
176 67 107 306 195 78 25 333 21 167 114 131 185 196 120 124 138 268 141 167 169 167 201 205 196 207 218 232 250 268 282 288 290 291 290 291 292 289 283 280 278 276 274
71 19 149 208 94 86 91 18 166 1 190 44 270 185 165 148 189 153 135 211 137 159 184 202 209 211 221 226 238 252 264 272 278 283 286 286 285 285 282 279 275 270 266
89 356 293 112 71 107 249 178 160 54 58 206 324 244 208 157 165 167 175 175 174 182 158 182 196 215 222 227 229 241 252 261 272 278 279 280 281 281 279 276 274 270 264
132 182 272 108 118 191 110 267 119 163 149 47 352 344 145 226 202 192 198 168 183 192 157 178 203 194 204 227 232 236 241 252 264 271 277 282 285 285 284 280 275 273 269
133 111 287 347 72 19 327 14 81 335 287 97 19 258 303 265 219 153 83 176 48 179 171 175 166 155 206 186 216 225 235 248 261 273 282 289 291 292 291 291 287 280 276
182 135 126 85 333 87 296 196 79 62 27 334 139 286 26 342 331 132 180 113 189 265 115 160 179 167 210 230 211 205 221 239 262 279 290 296 297 296 298 299 296 294 290
161 154 146 158 105 81 300 242 125 258 320 279 128 208 166 178 95 18 102 156 221 152 202 203 191 171 201 222 231 114 183 227 260 278 286 294 299 304 308 311 308 306 305
171 164 187 143 133 134 281 70 318 96 8 337 8 283 94 257 136 142 197 228 231 176 203 234 98 177 201 153 132 151 185 222 249 276 288 296 309 315 319 322 327 318 310
168 218 174 159 133 147 217 183 218 31 354 330 314 327 20 105 312 312 29 184 166 247 187 132 220 103 144 174 107 160 202 208 230 270 285 299 312 314 325 334 326 325 327
183 191 150 148 170 180 205 139 127 25 294 312 330 354 31 273 193 329 43 320 73 200 331 168 172 149 224 46 170 223 230 216 221 253 275 286 302 306 320 331 330 335 340
282 139 161 185 231 180 248 156 175 203 229 243 286 327 310 308 298 289 58 10 349 353 253 215 269 185 121 53 73 317 291 198 232 245 248 273 284 295 315 327 331 343 349
126 81 331 187 206 191 206 179 239 199 181 224 229 244 268 284 305 280 99 270 25 325 323 310 280 220 92 93 127 308 316 6 246 266 216 235 263 275 292 324 329 353 11
169 115 70 324 214 206 195 197 233 239 199 188 236 238 261 276 329 325 336 301 294 266 281 274 293 355 41 359 296 240 290 307 282 285 232 222 241 256 258 318 337 32 36
151 156 141 260 263 211 205 201 225 193 235 227 269 297 251 281 299 309 354 322 276 271 304 306 333 332 329 297 284 268 273 273 275 256 216 215 233 253 218 148 109 69 45
217 173 180 203 202 206 200 215 245 238 193 210 231 239 260 255 239 286 289 290 299 302 239 285 300 297 282 276 257 233 256 271 286 277 218 231 223 244 174 153 138 108 70
189 226 222 204 191 222 224 195 211 254 252 225 199 211 225 240 239 245 296 311 305 303 288 260 270 256 259 272 277 263 250 263 272 284 223 245 232 181 165 158 150 143 182
192 204 222 214 197 219 231 234 195 199 240 254 238 230 219 216 218 210 235 256 277 284 280 283 273 277 259 262 263 296 339 326 319 330 328 16 78 152 161 155 169 164 198
201 203 216 232 223 206 225 222 224 208 210 232 248 251 260 230 217 206 213 237 234 256 249 262 280 304 323 352 331 304 314 341 324 323 317 315 338 152 167 182 192 178 204
253 281 224 222 231 241 234 225 209 224 227 210 223 240 256 255 237 216 220 231 226 243 272 284 283 294 300 323 344 341 328 328 310 286 343 311 300 288 164 191 186 173 199
273 249 254 242 231 237 251 255 231 232 222 224 213 218 240 254 245 217 225 227 241 222 219 237 267 268 284 284 300 304 300 295 289 288 290 287 287 282 199 130 148 161 189
332 275 260 257 257 251 235 237 237 238 253 242 231 223 229 242 262 244 235 230 235 243 233 218 228 245 248 255 255 263 267 269 275 269 256 264 268 264 95 91 160 178 184
330 328 299 279 264 261 250 229 223 241 244 247 253 249 242 240 237 243 247 243 247 247 224 225 226 231 230 240 245 292 274 278 280 277 274 279 297 279 209 164 181 194 189
302 301 314 300 276 272 259 240 218 230 247 249 245 243 244 249 241 240 238 241 245 248 249 270 249 252 252 244 231 226 243 252 258 284 251 250 306 294 301 171 161 167 186